Terminal Aerodrome Forecast
Issued by NWS

Home | Current Version | Previous Version | Graphics & Text | Print | Product List | Glossary On
Versions: 1 2 3 4 5 6 7 8 9 10 11 12 13 14 15 16 17 18 19 20 21 22 23 24 25 26 27 28 29 30 31 32 33 34 35 36 37 38 39 40 41 42 43 44 45 46 47 48 49
351
FTUS43 KLOT 111738
TAFGYY
TAF
KGYY 111738Z 1118/1218 32008KT P6SM FEW030
     FM112300 29007KT P6SM FEW030
     FM120300 25007KT P6SM FEW040 BKN100
     FM121100 27013KT P6SM -SN BKN025
     FM121700 31014G20KT 6SM -SN BR BKN025=

USA.gov is the U.S. government's official web portal to all federal, state and local government web resources and services.